Weather History for Milan, Italy

Change the Weather History Date:

Wednesday, April 24, 2013

  Actual Average Record
Temperature  
Mean Temperature 56 °F -  
Max Temperature 69 °F 69 °F 78 °F (2007)
Min Temperature 44 °F 46 °F 32 °F (2001)
Degree Days  
Heating Degree Days 8    
Growing Degree Days 6 (Base 50)    
Moisture  
Dew Point 48 °F    
Average Humidity 72    
Maximum Humidity 100    
Minimum Humidity 43    
Precipitation  
Precipitation 0.00 in 0.17 in - ()
Sea Level Pressure  
Sea Level Pressure 30.38 in    
Wind  
Wind Speed 4 mph ()    
Max Wind Speed 6 mph    
Max Gust Speed -    
Visibility 6.2 miles    
Events Fog , Rain    
Averages and records for this station are not official NWS values.
T = Trace of Precipitation, MM = Missing Value Source: Averaged Metar Reports

Daily Weather History Graph

Daily Weather History Graph

Search for Another Location

Airport:

Trip Planner

Search our weather history database for the weather conditions in past years. The results will help you decide how hot, cold, wet, or windy it might be!

Date:

Astronomy

Apr. 24, 2013 Rise Set
Actual Time 6:24 AM CEST 8:23 PM CEST
Civil Twilight 5:52 AM CEST 8:55 PM CEST
Nautical Twilight 5:12 AM CEST 9:34 PM CEST
Astronomical Twilight 4:29 AM CEST 10:18 PM CEST
Moon 7:05 PM CEST (4/24) 5:22 AM CEST (4/24)
Length of Visible Light 15h 03m
Length of Day
13h 59m
Waxing Gibbous, 97% of the Moon is Illuminated
Apr 24
Waxing Gibbous
Apr 25
Full
May 2
Last Quarter
May 10
New
May 18
First Quarter

Hourly Weather History & Observations

Time (CEST) Temp. Windchill Dew Point Humidity Pressure Visibility Wind Dir Wind Speed Gust Speed Precip Events Conditions
12:20 AM 55.4 °F - 48.2 °F 77% 30.33 in 6.2 mi NW 3.5 mph - N/A   Mostly Cloudy
12:50 AM 53.6 °F - 50.0 °F 88% 30.36 in 6.2 mi ENE 4.6 mph - N/A   Drizzle
1:20 AM 53.6 °F - 51.8 °F 94% 30.36 in 6.2 mi WNW 5.8 mph - N/A Rain Rain
1:50 AM 53.6 °F - 53.6 °F 100% 30.36 in 6.2 mi WNW 4.6 mph - N/A Rain Light Rain
2:20 AM 51.8 °F - 51.8 °F 100% 30.36 in 6.2 mi NW 5.8 mph - N/A   Mostly Cloudy
2:50 AM 51.8 °F - 51.8 °F 100% 30.36 in 6.2 mi NW 4.6 mph - N/A   Mostly Cloudy
3:20 AM 51.8 °F - 51.8 °F 100% 30.36 in 6.2 mi NW 4.6 mph - N/A   Scattered Clouds
3:50 AM 51.8 °F - 51.8 °F 100% 30.36 in 6.2 mi WNW 4.6 mph - N/A   Scattered Clouds
4:20 AM 51.8 °F - 51.8 °F 100% 30.36 in - NW 3.5 mph - N/A   Clear
4:50 AM 50.0 °F - 50.0 °F 100% 30.36 in - NW 4.6 mph - N/A   Clear
5:20 AM 48.2 °F - 48.2 °F 100% 30.36 in - WNW 3.5 mph - N/A   Clear
5:50 AM 46.4 °F 45.2 °F 46.4 °F 100% 30.36 in - WNW 3.5 mph - N/A   Clear
6:20 AM 46.4 °F - 46.4 °F 100% 30.36 in 5.0 mi Variable 2.3 mph - N/A Fog Fog
6:50 AM 44.6 °F 43.1 °F 44.6 °F 100% 30.39 in 6.2 mi West 3.5 mph - N/A Fog Shallow Fog
7:20 AM 46.4 °F 45.2 °F 46.4 °F 100% 30.39 in 6.2 mi SSW 3.5 mph - N/A Fog Shallow Fog
7:50 AM 50.0 °F - 50.0 °F 100% 30.39 in 6.2 mi Variable 3.5 mph - N/A Fog Shallow Fog
8:20 AM 55.4 °F - 53.6 °F 94% 30.42 in 6.2 mi West 3.5 mph - N/A   Unknown
8:50 AM 57.2 °F - 53.6 °F 88% 30.42 in 6.2 mi West 3.5 mph - N/A   Unknown
9:20 AM 60.8 °F - 51.8 °F 72% 30.42 in 6.2 mi Variable 2.3 mph - N/A   Unknown
9:50 AM 60.8 °F - 50.0 °F 68% 30.42 in 6.2 mi South 3.5 mph - N/A   Unknown
10:20 AM 62.6 °F - 51.8 °F 68% 30.42 in 6.2 mi West 3.5 mph - N/A   Partly Cloudy
10:50 AM 64.4 °F - 46.4 °F 52% 30.45 in 6.2 mi Variable 1.2 mph - N/A   Partly Cloudy
11:20 AM 64.4 °F - 48.2 °F 56% 30.45 in 6.2 mi Variable 1.2 mph - N/A   Partly Cloudy
11:50 AM 62.6 °F - 46.4 °F 55% 30.45 in 6.2 mi WSW 3.5 mph - N/A   Partly Cloudy
12:20 PM 62.6 °F - 46.4 °F 55% 30.45 in 6.2 mi Variable 2.3 mph - N/A   Partly Cloudy
12:50 PM 66.2 °F - 48.2 °F 52% 30.42 in 6.2 mi Variable 3.5 mph - N/A   Partly Cloudy
1:20 PM 66.2 °F - 46.4 °F 49% 30.42 in 6.2 mi SSW 4.6 mph - N/A   Partly Cloudy
1:50 PM 68.0 °F - 46.4 °F 46% 30.42 in 6.2 mi SSW 5.8 mph - N/A   Partly Cloudy
2:20 PM 66.2 °F - 48.2 °F 52% 30.42 in 6.2 mi SW 4.6 mph - N/A   Scattered Clouds
2:50 PM 68.0 °F - 46.4 °F 46% 30.39 in 6.2 mi SW 4.6 mph - N/A   Scattered Clouds
3:20 PM 68.0 °F - 48.2 °F 49% 30.39 in 6.2 mi SW 5.8 mph - N/A   Partly Cloudy
3:50 PM 69.8 °F - 48.2 °F 46% 30.39 in 6.2 mi Variable 5.8 mph - N/A   Partly Cloudy
4:20 PM 69.8 °F - 48.2 °F 46% 30.36 in 6.2 mi SSW 5.8 mph - N/A   Partly Cloudy
4:50 PM 69.8 °F - 48.2 °F 46% 30.36 in 6.2 mi SSW 4.6 mph - N/A   Partly Cloudy
5:20 PM 69.8 °F - 46.4 °F 43% 30.36 in 6.2 mi SW 4.6 mph - N/A   Partly Cloudy
5:50 PM 68.0 °F - 44.6 °F 43% 30.36 in 6.2 mi SSW 5.8 mph - N/A   Partly Cloudy
6:20 PM 68.0 °F - 46.4 °F 46% 30.36 in - South 4.6 mph - N/A   Clear
6:50 PM 68.0 °F - 46.4 °F 46% 30.33 in - SSW 4.6 mph - N/A   Clear
7:20 PM 66.2 °F - 46.4 °F 49% 30.33 in - SSW 5.8 mph - N/A   Clear
7:50 PM 64.4 °F - 46.4 °F 52% 30.33 in - SSW 4.6 mph - N/A   Clear
8:20 PM 62.6 °F - 46.4 °F 55% 30.36 in - SSW 5.8 mph - N/A   Clear
8:50 PM 60.8 °F - 46.4 °F 59% 30.36 in - SSW 4.6 mph - N/A   Clear
9:20 PM 55.4 °F - 46.4 °F 72% 30.36 in - SSW 4.6 mph - N/A   Clear
9:50 PM 57.2 °F - 46.4 °F 67% 30.39 in - Variable 2.3 mph - N/A   Clear
10:20 PM 53.6 °F - 44.6 °F 72% 30.39 in - Variable 2.3 mph - N/A   Clear
10:50 PM 51.8 °F - 46.4 °F 82% 30.39 in - Variable 1.2 mph - N/A   Clear
11:20 PM 51.8 °F - 46.4 °F 82% 30.39 in - Calm Calm - N/A   Clear
11:50 PM 48.2 °F - 46.4 °F 93% 30.36 in - Variable 2.3 mph - N/A   Clear